Weather History for KALB - March, 2014

Change the Weather History Date:

Wednesday, March 19, 2014

  Actual Average Record
Temperature  
Mean Temperature 32 °F 36 °F  
Max Temperature 40 °F 46 °F 78 °F (2012)
Min Temperature 23 °F 27 °F -10 °F (1967)
Degree Days  
Heating Degree Days 33 29  
Month to date heating degree days 769 613  
Since 1 July heating degree days 5886 5557  
Cooling Degree Days 0 0  
Month to date cooling degree days 0 0  
Year to date cooling degree days 0 0  
Moisture  
Dew Point 23 °F    
Average Humidity 54    
Maximum Humidity 75    
Minimum Humidity 33    
Precipitation  
Precipitation 0.24 in 0.11 in 1.12 in (1896)
Month to date precipitation 0.97 1.90  
Year to date precipitation 6.76 6.69  
Snow  
Snow 0.20 in 0.30 in 9.60 in (1971)
Month to date snowfall 5.7 7.4  
Since 1 July snowfall 70.9 53.9  
Snow Depth 0.00 in    
Sea Level Pressure  
Sea Level Pressure 30.10 in    
Wind  
Wind Speed 7 mph (SSE)    
Max Wind Speed 17 mph    
Max Gust Speed 25 mph    
Visibility 8 miles    
Events Rain    
T = Trace of Precipitation, MM = Missing Value Source: NWS Daily Summary

Daily Weather History Graph

Daily Weather History Graph

Search for Another Location

Airport or City:

Trip Planner

Search our weather history database for the weather conditions in past years. The results will help you decide how hot, cold, wet, or windy it might be!

Date:

Astronomy

Mar. 19, 2014 Rise Set
Actual Time 7:00 AM EDT 7:06 PM EDT
Civil Twilight 6:32 AM EDT 7:34 PM EDT
Nautical Twilight 5:59 AM EDT 8:07 PM EDT
Astronomical Twilight 5:25 AM EDT 8:41 PM EDT
Moon 10:27 PM EDT (3/19) 8:20 AM EDT (3/19)
Length of Visible Light 13h 02m
Length of Day
12h 06m
Waning Gibbous, 91% of the Moon is Illuminated
Mar 19
Waning Gibbous
Mar 23
Last Quarter
Mar 30
New
Apr 7
First Quarter
Apr 15
Full

Hourly Weather History & Observations

Time (EDT) Temp. Windchill Dew Point Humidity Pressure Visibility Wind Dir Wind Speed Gust Speed Precip Events Conditions
12:51 AM 25.0 °F - 14.0 °F 63% 30.28 in 10.0 mi Calm Calm - N/A   Clear
1:51 AM 24.1 °F - 14.0 °F 65% 30.28 in 10.0 mi Calm Calm - N/A   Clear
2:51 AM 23.0 °F - 14.0 °F 68% 30.29 in 10.0 mi Calm Calm - N/A   Clear
3:51 AM 23.0 °F 15.8 °F 12.9 °F 65% 30.29 in 10.0 mi SSW 5.8 mph - N/A   Clear
4:51 AM 28.0 °F 21.7 °F 15.1 °F 58% 30.30 in 10.0 mi South 5.8 mph - N/A   Clear
5:51 AM 28.0 °F 20.0 °F 16.0 °F 61% 30.30 in 10.0 mi South 8.1 mph - N/A   Scattered Clouds
6:51 AM 28.0 °F 20.8 °F 18.0 °F 66% 30.32 in 10.0 mi South 6.9 mph - N/A   Mostly Cloudy
7:51 AM 28.9 °F 21.9 °F 19.0 °F 67% 30.30 in 10.0 mi SSE 6.9 mph - N/A   Mostly Cloudy
8:51 AM 30.9 °F 22.8 °F 19.9 °F 64% 30.32 in 10.0 mi South 9.2 mph - N/A   Overcast
9:51 AM 32.0 °F 23.6 °F 16.0 °F 52% 30.25 in 10.0 mi SE 10.4 mph - N/A   Overcast
10:51 AM 32.0 °F 24.2 °F 16.0 °F 52% 30.26 in 10.0 mi SSW 9.2 mph - N/A   Overcast
11:51 AM 35.1 °F 27.9 °F 14.0 °F 42% 30.22 in 10.0 mi South 9.2 mph - N/A   Overcast
12:51 PM 39.0 °F 32.3 °F 12.0 °F 33% 30.18 in 10.0 mi SSE 10.4 mph 19.6 mph N/A   Overcast
1:51 PM 39.0 °F 30.6 °F 14.0 °F 36% 30.15 in 10.0 mi South 15.0 mph - N/A   Overcast
2:51 PM 39.0 °F 31.8 °F 17.1 °F 41% 30.12 in 10.0 mi South 11.5 mph - 0.00 in   Overcast
3:08 PM 39.0 °F 32.3 °F 17.1 °F 41% 30.11 in 10.0 mi South 10.4 mph 17.3 mph 0.00 in Rain Light Ice Pellets
3:15 PM 39.0 °F 31.4 °F 18.0 °F 43% 30.10 in 10.0 mi South 12.7 mph 17.3 mph 0.00 in   Overcast
3:24 PM 39.0 °F 33.4 °F 18.0 °F 43% 30.10 in 10.0 mi South 8.1 mph - 0.00 in   Light Ice Pellets
3:51 PM 39.0 °F 34.0 °F 19.9 °F 46% 30.10 in 10.0 mi South 6.9 mph - 0.00 in Rain Light Ice Pellets
4:51 PM 39.0 °F 33.4 °F 21.9 °F 50% 30.09 in 10.0 mi South 8.1 mph - 0.00 in Rain Light Ice Pellets
5:51 PM 37.0 °F 30.4 °F 26.1 °F 65% 30.07 in 5.0 mi SSE 9.2 mph - 0.02 in Rain Light Rain
6:46 PM 35.6 °F 32.8 °F 28.4 °F 75% 30.04 in 10.0 mi East 3.5 mph - 0.02 in   Overcast
6:51 PM 35.1 °F 31.0 °F 28.9 °F 78% 30.05 in 10.0 mi East 4.6 mph - 0.02 in   Overcast
7:45 PM 35.6 °F 30.7 °F 28.4 °F 75% 30.00 in 10.0 mi ENE 5.8 mph - 0.01 in   Light Ice Pellets
7:51 PM 35.1 °F 32.2 °F 28.9 °F 78% 30.02 in 5.0 mi East 3.5 mph - 0.02 in   Ice Pellets
8:32 PM 34.0 °F 29.8 °F 30.0 °F 85% 29.99 in 8.0 mi SSW 4.6 mph - 0.04 in Rain Light Rain
8:40 PM 34.0 °F 31.0 °F 30.0 °F 85% 29.98 in 8.0 mi SSE 3.5 mph - 0.04 in Rain Light Rain
8:51 PM 34.0 °F - 30.0 °F 85% 29.99 in 7.0 mi Calm Calm - 0.05 in Rain Light Rain
8:59 PM 34.0 °F 31.0 °F 30.0 °F 85% 29.97 in 2.5 mi ESE 3.5 mph - 0.02 in Rain Ice Pellets
9:12 PM 34.0 °F 31.0 °F 30.9 °F 89% 29.96 in 2.5 mi ESE 3.5 mph - 0.03 in Rain Light Rain
9:17 PM 34.0 °F 31.0 °F 30.9 °F 89% 29.95 in 2.5 mi ESE 3.5 mph - 0.03 in Rain Light Rain
9:37 PM 34.0 °F - 30.9 °F 89% 29.92 in 2.5 mi Calm Calm - 0.03 in Rain Light Rain
9:51 PM 34.0 °F 28.0 °F 30.9 °F 89% 29.97 in 2.5 mi SSW 6.9 mph - 0.03 in Rain Light Rain
9:59 PM 34.0 °F - 30.9 °F 89% 29.91 in 2.5 mi Calm Calm - 0.03 in Rain Ice Pellets
10:10 PM 34.0 °F 31.0 °F 30.9 °F 89% 29.92 in 6.0 mi WNW 3.5 mph - 0.04 in Rain Light Rain
10:32 PM 34.0 °F 28.8 °F 30.9 °F 89% 29.92 in 6.0 mi South 5.8 mph - 0.05 in Rain Ice Pellets
10:51 PM 34.0 °F 26.0 °F 30.9 °F 89% 29.91 in 6.0 mi South 10.4 mph - 0.08 in Rain Light Rain
11:07 PM 34.0 °F 26.6 °F 32.0 °F 92% 29.89 in 6.0 mi SSE 9.2 mph - 0.01 in Rain Light Rain
11:24 PM 35.1 °F 26.9 °F 32.0 °F 89% 29.89 in 7.0 mi SSE 11.5 mph - 0.02 in Rain Light Rain
11:37 PM 35.1 °F 27.9 °F 32.0 °F 89% 29.88 in 8.0 mi SSE 9.2 mph - 0.02 in Rain Light Rain
11:51 PM 35.1 °F 26.9 °F 32.0 °F 89% 29.88 in 8.0 mi SSE 11.5 mph - 0.02 in   Light Drizzle